Location: Le Gr�zie
(43.6000°N, 13.5000°E)
Time: 11:48:57
(UTC+00:00)

Abrixas rocket - Pass Details

Date: 09 April 2020
Orbit: 344 x 351 km, 48.4° (Epoch: 03 June)

Event Time Altitude Azimuth Distance (km) Brightness Sun altitude
Rises 18:18:05 0° 293° (WNW) 2,163 8.4 -7.0°
Reaches altitude 10° 18:20:11 10° 301° (WNW) 1,322 6.4 -7.4°
Maximum altitude 18:22:59 38° 13° (NNE) 555 2.9 -7.9°
Drops below altitude 10° 18:25:48 10° 84° (E) 1,328 4.2 -8.3°
Enters shadow 18:25:49 10° 84° (E) 1,334 4.2 -8.3°
